Showing default

EZIE-A, 63247

Orbit data source: Space-Track

EZIE-A, 63247 is an American payload satellite in SSO that was launched on Sat, 15 Mar 2025 UTC via an FALCON 9 launch vehicle from the Air Force Western Test Range (AFWTR). Payload-class satellites include a variety of spacecraft equipped with specific instruments for various scientific and technological missions. These include communications satellites like Starlink; space stations such as the ISS; scientific satellites like the Hubble; Earth observation satellites from companies like Planet Labs, Umbra, and HawkEye 360; GPS; miniature CubeSats for education and research; and military/defense satellites.

Loading next visibility...
Identifier
63247, 2025-052AP
Orbit
SSO
Country
Flag of USUS
Related business
None
Manufacturer
Unknown
Mission
Operational Civil Science
Bus & Motor
Unknown
Mass
Unknown
Launch date (UTC)
2025-03-15 (7 months ago)
Launch vehicle
FALCON 9
Launch site
Air Force Western Test Range (AFWTR)
Object type
Payload
Rocket body
Debris
Shape & HBR
Box, 0.4 m
Radar Cross Section
0.035 m², Small (<0.1 m²)

Expand to show TLE details & history
Last TLE update: 1 day ago

TLE from 1 day ago
0 EZIE-A
1 63247U 25052AP  25286.68493293  .00009010  00000-0  84995-3 0  9991
2 63247  97.7105 177.9189 0002772 333.0106  27.0969 14.93991106 31818
Epoch: 2025-10-13T16:26Z
TLE epoch observation values (Epoch: 2025-10-13T16:26:18.205Z)
Latitude
-0.00006°
Longitude
-91.14112°
Altitude
586.833 km
Speed
7.568 km/s
True Right ascension
11h 51m 40s
True Declination
0° 00' 00"
Sunlit
Object was in daylight at epoch
Visualization orbit readout
Latitude
Unknown
Longitude
Unknown
Altitude
Unknown
Speed
Unknown
Apparent Right ascension
Unknown
Apparent Declination
Unknown
Sunlit
N/A
Visualization observer readout
Local Sidereal Time
11:59:42
Azimuth
Unknown
Elevation
Unknown
Doppler factor
Unknown
Orbital elements
Apogee altitude
584.449 km
Perigee altitude
580.59 km
Semi-major axis
6,960.657 km
Eccentricity
0.00028
Inclination
97.7105°
RAAN
177.9189°
Arg. of periapsis
333.0106°
True anomaly
27.11137°
Mean anomaly
27.0969°
Eccentric anomaly
27.10414°
Mean motion
3.73739 °/min
Orbital period
96.32 mins
BSTAR
0.00084995
Loading maneuver chart data...
Computing Atmospheric mass density...
Loading historical data...
Loading historical data...
Loading historical data...
Loading historical data...
Loading historical data...
Loading historical data...
Loading historical data...

Documentation

Showing up to 5 results
|